| time (UTC) | temp C | wind direction | speed KPH | gust KPH | rain 1hr cm | rain 24hr cm | rain mn cm | humidity % | barometer mb |
| 20260510131516 | 10 | 108 | 0.0 | 4.8 | 0.00 | 0.00 | 0.00 | 48 | 1018.5 |
| 20260510130033 | 10 | 50 | 0.0 | 6.4 | 0.00 | 0.00 | 0.00 | 55 | 1018.5 |
| 20260510124509 | 8 | 92 | 0.0 | 4.8 | 0.00 | 0.00 | 0.00 | 60 | 1018.4 |
| 20260510123007 | 8 | 79 | 0.0 | 1.6 | 0.00 | 0.00 | 0.00 | 64 | 1018.1 |
| 20260510121603 | 7 | 4 | 0.0 | 1.6 | 0.00 | 0.00 | 0.00 | 68 | 1017.9 |
| 20260510120008 | 6 | 347 | 0.0 | 3.2 | 0.00 | 0.00 | 0.00 | 72 | 1017.6 |
| 20260510114609 | 5 | 44 | 0.0 | 1.6 | 0.00 | 0.00 | 0.00 | 79 | 1017.5 |
| 20260510113059 | 3 | 356 | 0.0 | 1.6 | 0.00 | 0.00 | 0.00 | 85 | 1017.3 |
| 20260510111558 | 2 | 342 | 0.0 | 0.0 | 0.00 | 0.00 | 0.00 | 87 | 1017.1 |
| 20260510110059 | 2 | 340 | 0.0 | 0.0 | 0.00 | 0.00 | 0.00 | 86 | 1017.0 |
| 20260510104557 | 2 | 337 | 0.0 | 0.0 | 0.00 | 0.00 | 0.00 | 85 | 1016.7 |
| 20260510103050 | 3 | 335 | 0.0 | 0.0 | 0.00 | 0.00 | 0.00 | 83 | 1016.5 |
| 20260510101547 | 3 | 335 | 0.0 | 0.0 | 0.00 | 0.00 | 0.00 | 82 | 1016.4 |
| 20260510100045 | 3 | 330 | 0.0 | 0.0 | 0.00 | 0.00 | 0.00 | 81 | 1016.1 |
| 20260510094542 | 4 | 332 | 0.0 | 0.0 | 0.00 | 0.00 | 0.00 | 80 | 1016.0 |
| 20260510093042 | 4 | 18 | 0.0 | 1.6 | 0.00 | 0.00 | 0.00 | 80 | 1015.7 |
| 20260510091538 | 5 | 18 | 0.0 | 0.0 | 0.00 | 0.00 | 0.00 | 75 | 1015.8 |
| 20260510090034 | 5 | 18 | 0.0 | 0.0 | 0.00 | 0.00 | 0.00 | 72 | 1015.9 |
| 20260510084535 | 6 | 17 | 0.0 | 0.0 | 0.00 | 0.00 | 0.00 | 67 | 1015.7 |
| 20260510083028 | 7 | 19 | 0.0 | 3.2 | 0.00 | 0.00 | 0.00 | 64 | 1015.5 |
| 20260510081525 | 7 | 359 | 0.0 | 3.2 | 0.00 | 0.00 | 0.00 | 63 | 1015.2 |
| 20260510080023 | 7 | 1 | 1.6 | 6.4 | 0.00 | 0.00 | 0.00 | 61 | 1015.0 |
| 20260510074521 | 8 | 8 | 0.0 | 8.0 | 0.00 | 0.00 | 0.00 | 60 | 1014.7 |
| 20260510073019 | 8 | 360 | 3.2 | 12.9 | 0.00 | 0.00 | 0.00 | 59 | 1014.6 |
| 20260510071519 | 8 | 345 | 3.2 | 8.0 | 0.00 | 0.00 | 0.00 | 62 | 1014.3 |
| 20260510070016 | 8 | 360 | 1.6 | 9.7 | 0.00 | 0.00 | 0.00 | 67 | 1014.1 |
| 20260510064525 | 8 | 3 | 1.6 | 8.0 | 0.00 | 0.00 | 0.00 | 71 | 1013.7 |
| 20260510063008 | 6 | 358 | 0.0 | 3.2 | 0.00 | 0.00 | 0.00 | 83 | 1013.5 |
| 20260510061509 | 6 | 105 | 0.0 | 0.0 | 0.00 | 0.00 | 0.00 | 82 | 1013.2 |
| 20260510060059 | 6 | 106 | 0.0 | 0.0 | 0.00 | 0.00 | 0.00 | 80 | 1013.1 |
| 20260510054558 | 6 | 79 | 0.0 | 0.0 | 0.00 | 0.00 | 0.00 | 80 | 1013.0 |
| 20260510053054 | 7 | 78 | 0.0 | 0.0 | 0.00 | 0.00 | 0.00 | 77 | 1012.8 |
| 20260510051555 | 7 | 77 | 0.0 | 0.0 | 0.00 | 0.00 | 0.00 | 76 | 1012.6 |
| 20260510050050 | 7 | 79 | 0.0 | 0.0 | 0.00 | 0.00 | 0.00 | 74 | 1012.4 |
| 20260510044545 | 8 | 79 | 0.0 | 0.0 | 0.00 | 0.00 | 0.00 | 71 | 1012.1 |
| 20260510043042 | 8 | 79 | 0.0 | 0.0 | 0.00 | 0.00 | 0.00 | 68 | 1011.8 |
| 20260510041537 | 9 | 80 | 0.0 | 0.0 | 0.00 | 0.00 | 0.00 | 65 | 1011.4 |
| 20260510040037 | 9 | 81 | 0.0 | 0.0 | 0.00 | 0.00 | 0.00 | 63 | 1011.2 |
| 20260510034533 | 10 | 79 | 0.0 | 1.6 | 0.00 | 0.00 | 0.00 | 60 | 1011.1 |
| 20260510033036 | 10 | 74 | 0.0 | 0.0 | 0.00 | 0.00 | 0.00 | 59 | 1011.0 |
| 20260510031531 | 11 | 72 | 0.0 | 3.2 | 0.00 | 0.00 | 0.00 | 57 | 1010.9 |
| 20260510030028 | 11 | 35 | 0.0 | 1.6 | 0.00 | 0.00 | 0.00 | 57 | 1010.7 |
| 20260510024527 | 12 | 354 | 0.0 | 0.0 | 0.00 | 0.00 | 0.00 | 55 | 1010.4 |
| 20260510023024 | 12 | 354 | 0.0 | 0.0 | 0.00 | 0.00 | 0.00 | 53 | 1010.1 |
| 20260510021525 | 13 | 36 | 0.0 | 8.0 | 0.00 | 0.00 | 0.00 | 49 | 1009.6 |
| 20260510020017 | 15 | 11 | 0.0 | 4.8 | 0.00 | 0.00 | 0.00 | 46 | 1009.2 |
| 20260510014514 | 16 | 19 | 3.2 | 9.7 | 0.00 | 0.00 | 0.00 | 40 | 1008.7 |
| 20260510013011 | 17 | 322 | 1.6 | 9.7 | 0.00 | 0.00 | 0.00 | 37 | 1008.3 |
| 20260510011509 | 17 | 8 | 0.0 | 6.4 | 0.00 | 0.00 | 0.00 | 37 | 1007.9 |
| 20260510010006 | 18 | 331 | 1.6 | 12.9 | 0.00 | 0.00 | 0.00 | 37 | 1007.5 |
| 20260510004503 | 18 | 326 | 3.2 | 14.5 | 0.00 | 0.00 | 0.00 | 37 | 1007.2 |
| 20260510003107 | 19 | 335 | 1.6 | 12.9 | 0.00 | 0.00 | 0.00 | 37 | 1006.9 |
| 20260510001602 | 19 | 302 | 0.0 | 9.7 | 0.00 | 0.00 | 0.00 | 36 | 1006.6 |
| 20260510000057 | 20 | 188 | 1.6 | 6.4 | 0.00 | 0.00 | 0.00 | 34 | 1006.2 |
| 20260509234611 | 20 | 319 | 1.6 | 12.9 | 0.00 | 0.00 | 0.00 | 34 | 1006.1 |
| 20260509233054 | 21 | 255 | 3.2 | 8.0 | 0.00 | 0.00 | 0.00 | 34 | 1005.9 |
| 20260509231601 | 22 | 259 | 1.6 | 9.7 | 0.00 | 0.00 | 0.00 | 32 | 1005.7 |
| 20260509230059 | 22 | 259 | 4.8 | 16.1 | 0.00 | 0.00 | 0.00 | 33 | 1005.5 |
| 20260509224559 | 22 | 257 | 3.2 | 11.3 | 0.00 | 0.00 | 0.00 | 32 | 1005.3 |
| 20260509223059 | 22 | 12 | 3.2 | 16.1 | 0.00 | 0.00 | 0.00 | 32 | 1005.1 |
| 20260509221552 | 22 | 327 | 4.8 | 19.3 | 0.00 | 0.00 | 0.00 | 30 | 1005.0 |
| 20260509220050 | 22 | 196 | 4.8 | 16.1 | 0.00 | 0.00 | 0.00 | 28 | 1004.9 |
| 20260509214549 | 22 | 198 | 4.8 | 14.5 | 0.00 | 0.00 | 0.00 | 29 | 1004.6 |
| 20260509213049 | 23 | 304 | 3.2 | 19.3 | 0.00 | 0.00 | 0.00 | 31 | 1004.4 |
| 20260509211548 | 23 | 221 | 4.8 | 29.0 | 0.00 | 0.00 | 0.00 | 29 | 1004.4 |
| 20260509210057 | 23 | 165 | 6.4 | 20.9 | 0.00 | 0.00 | 0.00 | 27 | 1004.2 |
| 20260509204547 | 23 | 269 | 3.2 | 9.7 | 0.00 | 0.00 | 0.00 | 28 | 1003.9 |
| 20260509203055 | 23 | 145 | 4.8 | 16.1 | 0.00 | 0.00 | 0.00 | 29 | 1004.1 |
| 20260509201546 | 23 | 198 | 3.2 | 20.9 | 0.00 | 0.00 | 0.00 | 31 | 1004.0 |
| 20260509200043 | 23 | 236 | 4.8 | 17.7 | 0.00 | 0.00 | 0.00 | 29 | 1004.0 |
| 20260509194542 | 22 | 280 | 6.4 | 14.5 | 0.00 | 0.00 | 0.00 | 31 | 1004.3 |
| 20260509193041 | 21 | 37 | 6.4 | 19.3 | 0.00 | 0.00 | 0.00 | 31 | 1004.3 |
| 20260509191544 | 22 | 215 | 4.8 | 22.5 | 0.00 | 0.00 | 0.00 | 31 | 1004.4 |
| 20260509190041 | 22 | 174 | 8.0 | 20.9 | 0.00 | 0.00 | 0.00 | 30 | 1004.2 |
| 20260509184546 | 22 | 274 | 1.6 | 17.7 | 0.00 | 0.00 | 0.00 | 31 | 1004.1 |
| 20260509183039 | 22 | 153 | 4.8 | 17.7 | 0.00 | 0.00 | 0.00 | 32 | 1004.1 |
| 20260509181540 | 22 | 41 | 3.2 | 11.3 | 0.00 | 0.00 | 0.00 | 32 | 1004.1 |
| 20260509180105 | 22 | 108 | 3.2 | 17.7 | 0.00 | 0.00 | 0.00 | 31 | 1004.2 |
| 20260509174535 | 22 | 14 | 0.0 | 8.0 | 0.00 | 0.00 | 0.00 | 34 | 1004.3 |
| 20260509173041 | 22 | 236 | 3.2 | 14.5 | 0.00 | 0.00 | 0.00 | 31 | 1004.3 |
| 20260509171541 | 22 | 284 | 3.2 | 19.3 | 0.00 | 0.00 | 0.00 | 33 | 1004.5 |
| 20260509170046 | 22 | 36 | 3.2 | 12.9 | 0.00 | 0.00 | 0.00 | 36 | 1004.5 |
| 20260509164529 | 22 | 139 | 3.2 | 16.1 | 0.00 | 0.00 | 0.00 | 39 | 1004.4 |
| 20260509163027 | 20 | 179 | 3.2 | 12.9 | 0.00 | 0.00 | 0.00 | 51 | 1004.4 |
| 20260509161521 | 20 | 110 | 3.2 | 9.7 | 0.00 | 0.00 | 0.00 | 54 | 1004.3 |
| 20260509160021 | 18 | 122 | 3.2 | 16.1 | 0.00 | 0.00 | 0.00 | 60 | 1004.5 |
| 20260509154518 | 18 | 136 | 4.8 | 11.3 | 0.00 | 0.00 | 0.00 | 62 | 1004.4 |
| 20260509153018 | 17 | 137 | 4.8 | 11.3 | 0.00 | 0.00 | 0.00 | 65 | 1004.6 |
| 20260509151509 | 17 | 163 | 3.2 | 14.5 | 0.00 | 0.00 | 0.00 | 68 | 1004.5 |
| 20260509150007 | 16 | 153 | 3.2 | 14.5 | 0.00 | 0.00 | 0.00 | 72 | 1004.6 |
| 20260509144503 | 16 | 135 | 4.8 | 11.3 | 0.00 | 0.00 | 0.00 | 73 | 1004.6 |
| 20260509143109 | 15 | 124 | 1.6 | 12.9 | 0.00 | 0.00 | 0.00 | 75 | 1004.6 |
| 20260509141556 | 15 | 166 | 3.2 | 14.5 | 0.00 | 0.00 | 0.00 | 77 | 1004.6 |
| 20260509140053 | 14 | 134 | 3.2 | 14.5 | 0.00 | 0.00 | 0.00 | 79 | 1004.5 |
| 20260509134551 | 13 | 191 | 1.6 | 14.5 | 0.00 | 0.00 | 0.00 | 82 | 1004.6 |
| 20260509133104 | 13 | 211 | 3.2 | 12.9 | 0.00 | 0.00 | 0.00 | 82 | 1004.2 |